Location: Arroyo de Fuente Vieja
(40.4902°N, 4.1175°W)
Time: 15:35:20
(UTC+00:00)

USA 281 - Pass Details

Date: 18 April 2024
Orbit: 1074 x 1085 km, 106.0° (Epoch: 22 May)

Event Time Altitude Azimuth Distance (km) Brightness Sun altitude
Exits shadow 19:57:23 14° 123° (ESE) 2,638 4.6 -11.2°
Maximum altitude 20:02:39 42° 58° (ENE) 1,497 3.8 -12.1°
Drops below altitude 10° 20:08:45 10° 350° (N) 2,932 6.0 -13.1°
Sets 20:11:24 0° 344° (NNW) 3,893 6.9 -13.6°
